Starlink 32485

operational
NORAD ID: 62143 Int'l Des: 2024-224 Owner: SPXS Country: US Constellation: starlink
LEOCIRCULAR

Über Starlink 32485

Beschreibung wird geladen...

Live-Position

3D-Globus wird geladen...

Nächste Überflüge

Höhenverlauf

Altitude vs Time

uPlot chart will show altitude changes over time

Zweizeiliger Elementsatz

1 62143U 24224E 25304.68450433 .00039017 00000-0 14201-2 0 9997
2 62143 43.0034 169.8359 0001690 268.6155 91.4503 15.27575182 52284
Epoch: 31. Okt. 2025 • Age: 27 hours

Aktueller Status

Höhe 482.0 km
Geschwindigkeit 7.63 km/s
Subsatellitenpunkt 9.43°N, 155.06°W
Startdatum 30. Nov. 2024
Alter 0.9 years
Typ internet

Technische Details

Klassifizierung Payload
Masse 730.00 kg
Trockenmasse 700.00 kg
Gesamtmasse 730.00 kg
Länge 0.30 m
Durchmesser 4.10 m
Spannweite 29.00 m
Form Box + pan
Hersteller SPXS
Bus-Typ Starlink V2M
Phasenstatus In Orbit
Besitzer/Staat SPXS/US

Große Konstellationen

Loading constellations...